Precipitable_Water
0.39 0.37 0.45 0.53 0.32 0.31 0.26 0.28 0.32 0.29 0.28 0.38 0.45 0.43 0.38 0.45 0.42 0.51 1.25 1.30 1.25 1.21 1.20 1.20 1.25 1.43 1.52 1.53 1.53 1.52 1.47 1.48 1.52 1.52 1.48 1.45 1.43 1.38 1.27 1.17 1.15 1.11 1.18 1.21 1.16 1.18 1.13 1.12 1.11
0.37 0.42 0.48 0.40 0.30 0.24 0.24 0.33 0.32 0.33 0.37 0.44 0.43 0.39 0.39 0.44 0.73 0.86 1.07 1.11 1.07 1.13 1.22 1.25 1.35 1.47 1.58 1.58 1.54 1.55 1.53 1.54 1.56 1.57 1.48 1.44 1.45 1.40 1.40 1.30 1.17 1.14 1.16 1.15 1.08 1.07 1.13 1.06 1.06
0.43 0.53 0.35 0.35 0.29 0.24 0.25 0.32 0.34 0.37 0.37 0.34 0.36 0.48 0.57 0.49 0.78 0.80 1.01 1.02 1.03 1.11 1.32 1.22 1.34 1.48 1.63 1.63 1.54 1.60 1.58 1.60 1.59 1.61 1.56 1.50 1.53 1.52 1.55 1.38 1.19 1.11 1.09 1.04 1.04 1.05 1.01 1.07 1.06
0.38 0.41 0.33 0.25 0.24 0.28 0.28 0.31 0.34 0.34 0.34 0.40 0.46 0.40 0.65 0.82 0.74 0.88 1.00 1.02 1.04 1.12 1.36 1.32 1.32 1.47 1.63 1.73 1.61 1.59 1.56 1.55 1.56 1.59 1.61 1.52 1.65 1.61 1.58 1.44 1.25 1.11 1.03 1.00 1.04 1.00 1.01 1.02 1.03
0.39 0.32 0.25 0.26 0.28 0.31 0.31 0.35 0.33 0.33 0.32 0.35 0.45 0.45 0.56 0.93 1.04 0.99 0.96 1.01 1.03 1.09 1.36 1.38 1.35 1.44 1.56 1.69 1.66 1.64 1.64 1.67 1.57 1.58 1.60 1.59 1.65 1.62 1.52 1.39 1.22 1.16 1.12 1.03 0.98 1.02 1.02 0.96 0.90
0.30 0.30 0.23 0.23 0.26 0.29 0.30 0.35 0.35 0.34 0.33 0.33 0.40 0.50 0.57 0.95 0.98 1.06 1.02 0.96 1.04 1.07 1.20 1.35 1.41 1.44 1.50 1.63 1.63 1.77 1.81 1.87 1.72 1.65 1.62 1.64 1.54 1.54 1.40 1.32 1.23 1.15 1.03 1.01 1.00 0.94 0.90 0.89 0.85
0.29 0.27 0.24 0.26 0.27 0.29 0.31 0.38 0.35 0.32 0.33 0.39 0.59 0.49 0.53 0.92 1.07 1.11 1.04 1.01 1.01 1.05 1.14 1.33 1.39 1.54 1.57 1.57 1.66 1.79 1.77 1.77 1.87 1.73 1.59 1.56 1.55 1.51 1.31 1.23 1.13 1.11 1.11 0.99 1.00 0.91 0.88 0.89 0.88
0.30 0.29 0.26 0.29 0.29 0.29 0.30 0.39 0.41 0.35 0.33 0.53 0.55 0.39 0.44 0.87 0.97 0.98 0.98 0.97 1.04 1.18 1.17 1.24 1.41 1.49 1.70 1.61 1.66 1.77 1.58 1.50 1.65 1.72 1.58 1.51 1.47 1.41 1.31 1.20 1.17 1.12 1.05 1.00 0.98 0.92 0.90 0.86 0.83
0.35 0.26 0.24 0.28 0.30 0.29 0.36 0.36 0.40 0.37 0.41 0.41 0.48 0.51 0.71 0.82 0.87 0.90 0.84 0.99 1.02 1.22 1.26 1.23 1.35 1.44 1.55 1.59 1.65 1.63 1.64 1.45 1.84 1.70 1.58 1.49 1.40 1.45 1.32 1.35 1.30 1.14 1.14 1.03 0.98 0.90 0.86 0.82 0.77
0.30 0.27 0.26 0.32 0.34 0.31 0.33 0.37 0.35 0.32 0.36 0.39 0.44 0.57 0.79 0.84 0.81 0.73 0.70 0.86 1.03 1.12 1.22 1.37 1.45 1.48 1.50 1.51 1.63 1.64 1.59 1.46 1.80 1.67 1.57 1.51 1.32 1.42 1.37 1.44 1.34 1.14 1.07 1.02 0.94 0.87 0.84 0.73 0.82
0.31 0.26 0.31 0.33 0.36 0.34 0.34 0.35 0.36 0.33 0.31 0.34 0.46 0.52 0.74 0.75 0.77 0.67 0.71 0.86 1.05 1.16 1.26 1.36 1.41 1.51 1.52 1.52 1.56 1.54 1.57 1.58 1.77 1.67 1.62 1.53 1.42 1.39 1.39 1.43 1.30 1.10 1.04 0.96 0.88 0.76 0.72 0.68 0.85
0.29 0.31 0.34 0.35 0.36 0.33 0.33 0.36 0.32 0.35 0.36 0.42 0.52 0.54 0.55 0.70 0.73 0.69 0.68 0.86 0.99 1.06 1.19 1.28 1.41 1.50 1.53 1.54 1.48 1.51 1.55 1.50 1.59 1.62 1.56 1.42 1.34 1.46 1.44 1.36 1.24 1.04 1.02 0.90 0.77 0.77 0.80 0.74 0.91
0.30 0.31 0.35 0.38 0.36 0.33 0.35 0.34 0.34 0.34 0.39 0.45 0.58 0.59 0.58 0.69 0.69 0.69 0.72 0.82 0.95 0.98 1.12 1.20 1.32 1.40 1.49 1.45 1.48 1.54 1.48 1.44 1.47 1.48 1.52 1.44 1.41 1.40 1.39 1.30 1.23 1.08 1.05 0.91 0.83 0.89 0.90 0.86 0.96
0.32 0.31 0.33 0.35 0.35 0.36 0.32 0.32 0.33 0.34 0.39 0.43 0.59 0.59 0.64 0.70 0.68 0.68 0.70 0.77 0.80 0.89 0.98 1.12 1.26 1.38 1.45 1.40 1.43 1.49 1.51 1.49 1.43 1.45 1.42 1.46 1.42 1.40 1.38 1.27 1.22 1.17 1.06 0.94 0.96 1.02 0.97 0.96 0.99
0.33 0.30 0.32 0.36 0.38 0.36 0.38 0.31 0.31 0.36 0.37 0.39 0.53 0.62 0.69 0.72 0.70 0.64 0.69 0.76 0.78 0.85 0.93 1.03 1.19 1.37 1.36 1.40 1.41 1.44 1.49 1.44 1.43 1.46 1.42 1.43 1.43 1.35 1.28 1.27 1.19 1.19 1.11 1.01 1.00 1.08 1.00 0.98 0.97
0.32 0.34 0.29 0.35 0.37 0.38 0.37 0.28 0.34 0.37 0.39 0.40 0.54 0.63 0.70 0.74 0.73 0.75 0.72 0.75 0.79 0.82 0.86 1.01 1.24 1.32 1.34 1.38 1.44 1.46 1.49 1.45 1.45 1.46 1.45 1.45 1.45 1.35 1.26 1.24 1.26 1.18 1.18 1.06 1.10 1.03 0.93 0.92 0.93
0.32 0.28 0.31 0.32 0.37 0.37 0.37 0.31 0.35 0.37 0.45 0.47 0.49 0.58 0.70 0.74 0.75 0.76 0.80 0.76 0.78 0.80 0.87 0.93 1.20 1.29 1.31 1.37 1.45 1.45 1.47 1.46 1.46 1.47 1.41 1.40 1.27 1.32 1.33 1.29 1.28 1.16 1.28 1.12 1.08 1.00 0.91 0.90 0.94
0.27 0.31 0.35 0.34 0.38 0.41 0.37 0.34 0.36 0.40 0.45 0.48 0.46 0.47 0.67 0.73 0.75 0.78 0.80 0.76 0.78 0.79 0.87 0.94 1.07 1.24 1.27 1.37 1.36 1.37 1.40 1.44 1.45 1.44 1.40 1.37 1.29 1.32 1.42 1.29 1.32 1.25 1.27 1.15 1.03 0.95 0.96 0.95 0.94
0.36 0.37 0.38 0.41 0.43 0.38 0.37 0.35 0.33 0.33 0.37 0.43 0.45 0.51 0.56 0.73 0.81 0.82 0.83 0.77 0.76 0.77 0.79 0.87 0.97 1.09 1.20 1.26 1.24 1.28 1.28 1.37 1.40 1.41 1.37 1.38 1.26 1.24 1.23 1.19 1.16 1.09 1.07 1.00 1.02 0.98 0.96 0.96 0.95
0.40 0.38 0.36 0.41 0.41 0.36 0.34 0.33 0.33 0.32 0.35 0.37 0.41 0.48 0.57 0.69 0.79 0.78 0.80 0.75 0.69 0.71 0.76 0.83 0.92 1.01 1.09 1.24 1.28 1.31 1.33 1.38 1.39 1.40 1.31 1.29 1.19 1.23 1.18 1.16 1.05 1.06 1.04 0.98 0.99 0.97 0.95 0.94 0.95
0.38 0.37 0.37 0.35 0.38 0.38 0.34 0.34 0.35 0.32 0.31 0.34 0.43 0.44 0.59 0.66 0.75 0.74 0.77 0.78 0.72 0.67 0.72 0.78 0.87 0.96 1.07 1.22 1.30 1.32 1.34 1.33 1.29 1.31 1.23 1.19 1.22 1.20 1.16 1.09 1.01 1.01 1.04 1.01 1.05 1.00 0.96 0.88 0.91
0.35 0.41 0.39 0.37 0.34 0.28 0.35 0.28 0.33 0.32 0.32 0.32 0.36 0.41 0.46 0.54 0.74 0.78 0.75 0.80 0.74 0.67 0.71 0.77 0.84 0.91 1.04 1.16 1.21 1.23 1.19 1.16 1.19 1.22 1.22 1.21 1.22 1.16 1.13 1.14 1.08 1.00 1.02 1.06 1.14 1.13 1.07 1.03 0.90
0.41 0.46 0.44 0.41 0.35 0.33 0.31 0.29 0.33 0.35 0.33 0.33 0.36 0.42 0.46 0.49 0.61 0.75 0.75 0.80 0.85 0.76 0.67 0.72 0.80 0.85 0.97 1.05 1.12 1.14 1.14 1.19 1.16 1.21 1.21 1.20 1.21 1.22 1.18 1.15 1.16 1.05 1.01 1.12 1.25 1.19 1.12 1.10 1.07
0.47 0.44 0.45 0.41 0.36 0.26 0.30 0.30 0.31 0.33 0.34 0.35 0.38 0.39 0.42 0.48 0.58 0.74 0.82 0.83 0.86 0.87 0.73 0.69 0.72 0.78 0.89 0.97 1.04 1.06 1.06 1.07 1.07 1.10 1.10 1.14 1.17 1.22 1.19 1.13 1.14 1.21 1.17 1.10 1.20 1.19 1.12 1.08 1.07
0.45 0.39 0.31 0.29 0.27 0.24 0.34 0.29 0.30 0.36 0.39 0.40 0.39 0.38 0.39 0.50 0.59 0.70 0.79 0.78 0.83 0.86 0.80 0.70 0.70 0.72 0.82 0.90 0.97 1.03 1.07 1.04 1.03 1.04 1.04 1.05 1.10 1.12 1.12 1.12 1.09 1.12 1.15 1.21 1.17 1.14 1.09 1.10 1.08
0.44 0.40 0.32 0.26 0.26 0.28 0.34 0.26 0.29 0.38 0.40 0.42 0.44 0.44 0.46 0.52 0.60 0.64 0.75 0.77 0.82 0.88 0.88 0.77 0.71 0.67 0.76 0.82 0.89 0.98 1.02 1.04 1.03 1.03 1.02 0.98 0.98 1.06 1.10 1.10 1.06 1.07 1.20 1.19 1.19 1.11 1.08 1.08 1.09
0.44 0.40 0.42 0.37 0.40 0.36 0.37 0.36 0.37 0.40 0.41 0.41 0.40 0.42 0.43 0.46 0.54 0.61 0.72 0.77 0.80 0.86 0.90 0.88 0.74 0.70 0.71 0.76 0.83 0.89 0.96 0.97 0.97 1.01 1.01 0.98 0.97 0.99 1.09 1.08 1.04 1.08 1.14 1.17 1.10 1.01 1.02 1.03 1.07
0.46 0.51 0.36 0.37 0.29 0.28 0.36 0.34 0.33 0.39 0.40 0.41 0.43 0.42 0.45 0.51 0.57 0.68 0.73 0.80 0.81 0.87 0.92 0.96 0.87 0.74 0.75 0.76 0.78 0.82 0.88 0.94 0.95 0.97 0.96 0.96 0.99 0.97 1.00 1.01 1.01 1.07 1.13 1.15 1.08 1.04 1.04 1.01 1.03
0.42 0.42 0.46 0.45 0.36 0.32 0.31 0.38 0.54 0.47 0.45 0.46 0.51 0.54 0.55 0.56 0.58 0.64 0.73 0.78 0.83 0.87 0.91 0.93 0.94 0.83 0.78 0.78 0.77 0.76 0.81 0.88 0.94 0.92 0.93 0.95 0.97 0.97 0.97 0.98 0.99 1.04 1.11 1.14 1.10 1.08 1.06 1.03 1.04
0.43 0.41 0.43 0.39 0.37 0.38 0.37 0.38 0.59 0.58 0.52 0.50 0.52 0.55 0.58 0.59 0.60 0.63 0.60 0.70 0.79 0.87 0.92 0.94 0.97 0.93 0.85 0.83 0.82 0.78 0.78 0.83 0.85 0.88 0.91 0.95 0.94 0.98 0.96 0.96 0.98 1.00 0.98 1.01 1.01 1.01 1.02 1.01 1.00
Wind_Speed
16 15 14 15 13 13 16 17 9 10 10 7 9 11 14 14 15 13 12 14 16 16 14 15 16 18 21 22 23 23 23 22 22 21 20 19 18 17 16 16 16 16 16 15 14 13 12 12 12
16 15 15 14 14 15 14 5 9 10 6 9 13 14 13 12 10 9 10 14 16 16 15 15 17 18 20 21 22 24 24 23 23 22 21 21 20 19 18 18 17 17 17 16 15 14 13 13 12
17 17 16 14 16 15 15 9 11 10 11 13 13 13 11 10 9 12 15 16 17 16 15 15 18 19 21 22 22 23 24 25 24 23 22 21 22 21 19 19 19 18 17 17 16 15 15 14 13
16 16 17 17 20 20 21 16 10 10 11 10 10 11 8 9 11 11 14 16 16 17 18 17 19 21 22 24 24 24 25 26 26 26 23 22 23 23 21 20 19 19 18 18 17 16 15 14 13
19 18 20 21 20 21 20 13 13 12 11 13 11 11 11 8 10 12 15 16 16 16 17 18 19 22 24 26 27 28 28 28 28 27 25 23 23 23 22 21 20 19 18 18 18 16 15 14 13
19 19 21 20 21 19 18 13 13 14 13 14 14 13 10 11 13 13 16 18 17 16 17 17 20 22 25 27 29 30 32 31 30 28 28 24 22 24 22 21 21 20 19 18 18 17 15 14 14
24 21 23 22 20 19 13 13 13 14 14 12 8 10 13 9 11 15 17 19 18 17 17 18 19 21 24 28 28 28 22 21 29 29 28 25 21 24 24 22 21 21 20 19 18 16 16 15 14
24 23 26 23 20 22 17 13 13 14 14 11 12 12 11 10 14 17 19 19 18 16 16 17 18 21 22 25 28 28 25 23 24 30 26 27 24 22 25 23 23 22 21 20 18 17 16 15 14
26 25 24 23 21 20 13 14 15 16 12 15 13 13 11 13 15 17 17 16 17 13 13 15 17 19 21 21 24 27 23 24 26 29 24 25 24 24 24 25 24 22 21 20 18 17 17 16 15
28 26 25 22 20 17 13 13 15 15 15 14 14 14 11 12 15 17 18 16 14 11 11 11 13 15 18 19 20 22 22 20 27 27 24 23 24 25 24 26 25 23 21 19 18 18 17 16 16
29 30 24 24 21 18 18 16 13 14 15 15 9 11 10 14 14 15 15 13 11 9 9 10 11 12 14 16 18 21 20 16 23 25 23 21 21 23 24 25 25 24 22 20 19 19 17 17 15
30 30 27 25 23 18 21 18 18 16 15 15 13 12 14 13 13 13 12 10 8 7 8 9 9 9 11 15 17 18 23 18 24 21 22 22 20 22 23 25 26 25 23 21 20 19 18 17 15
31 27 28 26 24 22 19 20 19 18 17 14 12 11 12 11 11 10 9 8 8 8 8 8 9 10 11 11 13 16 20 22 24 24 24 24 21 21 23 27 27 26 24 22 21 20 18 17 14
27 26 27 26 26 21 23 21 21 20 18 16 12 12 10 10 10 9 8 7 8 8 8 8 8 11 13 12 12 16 17 22 26 27 26 25 24 23 27 28 28 26 26 24 22 20 18 17 14
27 26 25 25 23 24 21 24 23 20 18 19 14 12 11 9 9 9 9 8 8 8 8 8 9 12 13 15 15 15 17 20 26 28 26 27 26 26 27 28 28 28 27 26 24 21 19 17 15
27 25 25 24 25 23 23 23 21 18 19 16 14 13 11 10 10 9 8 8 8 7 8 8 8 10 14 15 17 18 21 21 27 29 28 29 29 28 27 27 28 28 29 26 23 21 19 17 15
23 23 24 24 23 23 23 23 20 17 14 14 14 13 12 10 10 9 8 8 8 8 7 7 5 6 11 14 16 17 20 24 29 29 29 29 30 28 27 28 29 29 30 27 24 22 20 18 17
23 22 22 21 20 21 24 20 18 18 17 16 15 14 13 11 11 9 8 8 7 7 7 6 4 5 9 12 14 15 18 24 30 31 29 30 30 29 28 28 28 29 29 27 25 23 21 19 17
24 23 21 18 17 19 20 20 19 20 19 17 15 14 14 12 10 9 8 7 6 7 7 6 5 5 6 9 10 9 11 21 28 31 30 28 30 31 29 26 27 28 28 28 26 24 22 19 19
28 26 23 21 16 13 16 19 19 19 19 18 16 15 13 12 10 8 7 7 7 6 6 6 5 5 5 7 8 8 11 17 27 28 27 26 29 30 29 26 27 29 27 27 28 25 22 20 20
29 28 24 24 20 17 15 20 21 21 20 19 17 14 14 13 12 10 9 8 6 6 6 6 5 5 5 6 10 10 12 16 21 24 26 26 28 29 29 26 27 29 27 27 26 24 22 21 20
28 26 25 24 22 20 18 17 17 19 19 19 19 14 14 13 13 12 11 9 8 6 6 6 6 6 5 7 10 13 13 15 18 19 24 26 28 29 29 26 26 27 27 26 25 24 24 22 21
28 23 22 22 24 23 23 18 15 14 16 21 19 18 16 15 14 14 13 10 8 7 7 7 7 7 7 9 11 13 13 15 18 20 20 23 25 27 29 28 26 26 27 27 26 25 25 24 21
24 24 23 22 21 24 23 21 17 17 15 16 14 14 17 15 13 13 14 12 10 9 8 8 8 8 9 10 10 12 14 14 17 20 22 22 25 26 27 28 27 27 27 28 26 26 25 24 23
26 22 20 18 21 21 21 20 20 17 12 7 9 9 11 14 12 13 13 14 12 12 10 9 9 10 10 11 12 13 14 15 16 19 20 22 24 25 27 28 29 27 28 27 28 27 26 26 26
29 25 20 17 16 20 23 18 20 19 18 11 12 12 8 10 10 12 14 14 13 13 12 11 11 11 11 11 12 13 14 15 15 18 19 22 23 23 24 27 28 28 27 28 28 28 28 27 27
29 27 26 21 15 13 16 24 19 14 13 11 12 13 12 11 11 11 13 15 15 14 14 13 13 12 13 14 13 14 15 16 17 17 19 21 22 24 23 26 27 28 28 28 28 29 29 29 30
25 26 22 20 16 15 12 13 16 16 14 14 10 11 10 8 10 12 12 15 16 16 16 16 15 15 15 15 15 15 16 16 17 18 20 21 22 25 25 27 28 28 29 29 30 30 31 31 32
23 26 23 23 23 15 11 12 6 4 9 10 5 5 5 6 7 7 11 14 17 17 18 18 18 17 17 17 17 17 18 18 18 19 19 21 22 23 25 26 28 29 29 30 31 31 31 32 32
27 24 27 20 20 24 18 12 14 14 9 9 7 5 5 6 5 7 9 11 14 17 19 20 20 21 20 19 18 19 19 20 21 21 21 21 23 23 25 26 28 29 31 32 32 32 33 34 34
Wind_Direction
272 276 280 286 288 278 280 273 250 285 279 267 284 285 291 289 295 286 272 283 284 279 269 258 243 231 227 224 222 221 221 220 218 216 213 210 206 201 199 192 191 186 182 178 176 174 171 167 164
267 270 274 284 275 283 282 221 272 266 283 288 282 279 279 286 304 286 288 287 287 278 264 257 240 232 226 223 222 221 220 218 217 214 211 207 204 201 196 192 188 186 185 184 181 178 175 171 167
264 267 271 270 268 264 264 289 271 271 277 280 281 281 277 278 297 291 294 290 285 278 262 257 239 233 226 222 220 219 218 215 211 207 206 205 203 197 194 190 188 186 185 183 181 179 175 173 170
258 259 265 267 269 270 269 269 276 270 268 269 281 287 280 279 285 296 304 299 288 275 267 254 245 235 230 225 222 220 217 213 210 206 205 203 199 196 194 189 188 187 187 187 182 179 180 179 171
253 260 257 263 268 266 270 261 274 269 273 277 284 281 290 281 287 298 307 307 295 281 268 256 246 238 232 227 226 224 220 211 206 203 200 198 197 195 193 192 188 185 185 184 185 185 178 173 172
249 251 258 262 264 269 255 256 258 260 264 274 267 267 286 284 289 294 306 306 298 283 269 261 250 243 236 232 231 231 225 207 203 198 195 192 194 193 192 190 188 187 185 185 184 179 177 176 176
247 248 251 259 270 280 268 250 247 263 266 270 272 274 291 280 295 302 306 306 298 286 274 262 253 246 241 234 234 234 222 208 205 193 194 194 192 193 194 191 190 189 186 185 180 178 176 175 176
243 248 255 260 266 271 274 240 246 260 267 268 271 274 284 288 296 301 305 306 299 287 274 265 257 249 244 237 232 233 235 235 221 191 192 195 195 194 194 191 188 187 188 184 181 177 176 176 176
239 245 249 253 258 268 245 247 253 264 258 274 265 267 272 288 298 302 307 307 305 289 279 269 260 250 244 237 232 231 232 240 201 194 190 193 196 192 190 190 188 188 188 182 180 178 177 178 177
235 241 244 250 255 273 250 243 257 252 255 263 267 266 266 289 299 303 308 309 304 290 285 274 264 253 241 232 227 228 234 235 187 186 187 189 192 194 192 190 189 187 186 184 183 179 178 180 178
235 238 244 246 266 261 266 254 255 262 263 270 274 279 270 289 297 304 308 310 303 296 290 280 270 252 232 224 226 230 221 206 174 184 181 185 188 190 193 189 189 189 187 187 184 182 181 182 182
239 239 241 249 254 264 254 254 256 261 264 268 268 276 280 282 292 300 308 312 307 300 296 290 266 248 232 225 226 227 203 205 188 183 190 193 193 190 195 194 193 192 192 190 187 185 187 187 189
238 240 243 246 254 256 250 251 254 260 262 268 268 274 274 279 292 301 300 309 305 308 303 294 264 244 228 221 217 203 208 208 204 208 200 194 198 203 199 195 195 194 194 195 190 192 192 195 200
238 242 244 245 249 254 248 249 251 256 262 259 257 267 270 272 283 293 291 293 304 306 307 299 268 242 228 218 205 208 210 209 207 201 206 204 208 207 200 198 198 198 200 199 196 199 199 202 206
241 248 246 241 244 251 248 247 249 256 258 254 252 256 262 265 278 286 285 282 295 301 304 306 280 240 227 220 220 213 212 213 208 205 209 210 210 205 200 200 201 202 201 199 200 199 202 206 209
238 240 243 242 245 244 242 249 252 254 256 237 250 249 253 260 271 277 286 285 284 295 300 308 296 239 223 222 227 231 231 228 216 212 211 209 201 201 201 201 200 202 200 200 202 204 205 207 212
230 235 238 242 245 245 233 243 247 252 229 240 252 249 248 255 262 269 279 280 275 286 296 303 295 235 221 227 230 237 241 232 212 207 204 203 200 202 202 203 203 205 205 207 204 206 208 210 215
224 227 234 247 243 238 232 238 243 253 227 241 251 258 244 248 254 258 271 275 271 277 282 290 279 246 229 226 233 247 243 218 205 205 203 202 204 202 202 202 203 204 206 206 209 209 214 216 220
236 244 251 246 243 243 230 241 249 244 244 241 242 248 252 244 250 248 263 268 262 268 268 272 266 252 233 229 225 231 211 198 197 195 196 201 206 205 203 204 207 207 208 212 210 212 216 221 224
232 240 245 251 248 234 245 246 255 250 243 242 241 241 249 239 235 240 252 257 260 253 258 258 250 233 234 220 207 190 183 184 187 194 201 204 202 204 203 212 209 208 212 211 213 218 220 224 226
231 236 238 246 252 257 243 254 253 252 246 242 237 247 243 236 231 232 240 247 256 247 242 241 232 217 226 207 189 183 173 172 186 200 205 206 202 203 207 210 212 211 212 214 217 219 223 227 232
232 232 237 244 246 245 240 254 259 242 240 236 237 236 244 242 231 228 232 239 244 244 231 224 219 214 207 191 188 190 192 194 195 199 201 203 205 205 205 208 208 208 212 213 219 223 226 230 236
233 234 237 242 244 248 248 253 253 257 245 234 229 236 238 237 234 228 227 231 236 237 224 222 219 214 207 197 195 194 197 199 199 198 197 200 202 206 209 210 211 212 215 219 224 226 229 235 239
236 232 238 240 244 239 239 246 249 247 248 243 226 234 234 228 233 227 224 226 232 231 223 219 218 216 209 205 202 201 200 199 199 203 207 209 211 212 213 215 217 220 223 226 227 229 232 234 238
228 229 225 230 233 239 238 240 237 243 254 237 218 227 234 215 229 228 222 225 228 224 222 218 218 217 212 211 210 211 208 207 210 210 212 213 214 215 217 218 220 224 226 227 229 232 235 237 239
221 227 221 221 235 242 232 234 235 232 241 234 241 238 226 209 226 234 230 226 225 225 223 223 222 221 216 213 214 215 214 215 216 215 215 215 216 219 220 221 224 225 227 230 231 234 237 241 244
220 228 228 239 244 251 245 228 235 211 216 229 231 222 226 232 237 241 234 227 228 227 227 226 224 223 221 220 218 219 218 220 221 221 220 220 222 223 225 224 224 226 230 233 235 238 242 245 248
219 221 228 226 228 233 233 210 216 223 217 221 213 219 224 235 232 237 239 236 233 232 231 231 231 229 226 226 228 226 225 226 223 224 224 224 226 226 229 227 229 232 235 237 239 242 246 248 251
218 221 222 230 227 227 221 223 222 168 185 192 195 182 210 230 251 257 248 244 237 236 233 233 234 232 232 230 232 232 230 229 226 227 226 227 228 229 230 230 232 235 237 239 242 245 247 250 254
233 230 223 223 223 230 230 219 196 206 198 205 210 223 224 246 277 259 263 261 250 238 236 236 237 238 237 236 236 235 234 234 233 233 232 231 232 233 234 235 238 239 240 243 246 248 250 253 255